sat.trackr.live / text

‹ back to catalog

STARLINK-36854

NORAD 68312 · 2026-057U

PAYLOAD ACTIVE UNKNOWN

§ Identity

Operator
Country
US
Launch date
2026-03-20
Launch site
AFWTR
Launch vehicle
Mass (kg)
RCS (m²)

Purposes: comms

External: N2YO · Heavens-Above · Gunter

§ Orbital elements

Epoch: 2026-09-19T07:41:55.931136Z

Period
93.91 min
Inclination
97.2844°
Eccentricity
0.0001045
Mean motion
15.33453607 rev/d
Perigee alt
464.8 km
Apogee alt
466.2 km
Semi-major
6,843.7 km
B*
6.6504e-4
RAAN
27.7497°
Arg perigee
92.9985°
Mean anomaly
267.1377°
Rev number
2,833

§ Raw data

STARLINK-368541 68312U 26057U   26262.32078624  .00021462  00000+0  66504-3 0  99982 68312  97.2844  27.7497 0001045  92.9985 267.1377 15.33453607 28330

JSON: /api/v1/satellites/68312 · /tle

For live sub-satellite position, see the globe view (requires WebGL).

§ Visibility from observer

Set your observer location to see the next 7 days of passes ≥ 10°. The values pass through the URL so the page stays shareable.

No JS? Fill the form by hand. The geolocation button needs JavaScript.